User: anonymous   Login
Location: ????????
(55.3155°N, 39.2900°E)
Time: 17:59:25
(UTC+00:00)
Language:

Okean 1 - Orbit

View from above orbital plane
View from above orbital plane
View from above satellite
View from above satellite

Ground track
Ground track

The orbit data is extracted from the following two-line orbital elements,

1 19274U 88056A   24170.91733415  .00005369  00000-0  27562-3 0  9995
2 19274  82.4752 174.3236 0016470 212.3786 147.6437 15.16196946939298
Epoch (UTC): 18 June 2024 22:00:57
Eccentricity: 0.0016470
inclination: 82.4752°
perigee height: 506 km
apogee height: 529 km
right ascension of ascending node: 174.3236°
argument of perigee: 212.3786°
revolutions per day: 15.16196946
mean anomaly at epoch: 147.6437°
orbit number at epoch: 93929

The dashed part of the orbit path shows where the satellite is in the earth's shadow,  

DLR